• In Portugal
  • List of Countries
  • For 7 days
  • Water Temperature
  • Satellite Maps
  • Weather Map
  • Weather Widgets
  • user-avatar
    Login

    Hourly Weather Abovyan

    Today, 20 January, Saturday

    Time Temperature Precipitation Wind Pressure Humidity
    00:00 +2°C° 0 mm 2 mps 665 mmHg 79%
    01:00 +2°C° 0.1 mm 2 mps 666 mmHg 80%
    02:00 +2°C° 0.1 mm 2 mps 666 mmHg 81%
    03:00 +2°C° 0 mm 3 mps 666 mmHg 82%
    04:00 +2°C° 0.5 mm 3 mps 666 mmHg 83%
    05:00 +2°C° 0.5 mm 3 mps 667 mmHg 83%
    06:00 +1°C° 0.5 mm 3 mps 667 mmHg 84%
    07:00 +1°C° 0.3 mm 3 mps 668 mmHg 83%
    08:00 +2°C° 0.3 mm 2 mps 668 mmHg 82%
    09:00 +3°C° 0 mm 2 mps 669 mmHg 81%
    10:00 +4°C° 0 mm 2 mps 669 mmHg 78%
    11:00 +4°C° 0 mm 2 mps 669 mmHg 76%
    12:00 +5°C° 0 mm 2 mps 670 mmHg 74%
    13:00 +5°C° 0 mm 2 mps 670 mmHg 73%
    14:00 +6°C° 0 mm 1 mps 670 mmHg 72%
    15:00 +6°C° 0 mm 1 mps 670 mmHg 71%
    16:00 +5°C° 0 mm 1 mps 670 mmHg 72%
    17:00 +4°C° 0 mm 1 mps 671 mmHg 74%
    18:00 +2°C° 0 mm 1 mps 671 mmHg 75%
    19:00 +2°C° 0 mm 1 mps 671 mmHg 75%
    20:00 +1°C° 0 mm 1 mps 672 mmHg 74%
    21:00 +1°C° 0 mm 1 mps 672 mmHg 74%
    22:00 +1°C° 0 mm 1 mps 672 mmHg 74%
    23:00 0°C° 0 mm 1 mps 672 mmHg 74%

    Tomorrow, 21 January, Sunday

    Time Temperature Precipitation Wind Pressure Humidity
    00:00 0°C° 0 mm 1 mps 673 mmHg 74%
    01:00 -2°C° 0 mm 2 mps 673 mmHg 74%
    02:00 -2°C° 0 mm 2 mps 673 mmHg 75%
    03:00 -2°C° 0 mm 2 mps 673 mmHg 75%
    04:00 -2°C° 0 mm 2 mps 673 mmHg 75%
    05:00 -2°C° 0 mm 2 mps 673 mmHg 74%
    06:00 -2°C° 0 mm 2 mps 673 mmHg 74%
    07:00 -2°C° 0 mm 2 mps 673 mmHg 73%
    08:00 -1°C° 0 mm 2 mps 673 mmHg 72%
    09:00 +1°C° 0 mm 2 mps 673 mmHg 71%
    10:00 +2°C° 0 mm 2 mps 673 mmHg 69%
    11:00 +3°C° 0 mm 2 mps 673 mmHg 67%
    12:00 +4°C° 0 mm 2 mps 672 mmHg 65%
    13:00 +5°C° 0 mm 2 mps 672 mmHg 65%
    14:00 +5°C° 0 mm 2 mps 672 mmHg 64%
    15:00 +5°C° 0 mm 2 mps 672 mmHg 64%
    16:00 +4°C° 0 mm 2 mps 672 mmHg 64%
    17:00 +2°C° 0 mm 2 mps 672 mmHg 64%
    18:00 +1°C° 0 mm 2 mps 673 mmHg 64%
    19:00 -1°C° 0 mm 2 mps 672 mmHg 64%
    20:00 -1°C° 0 mm 2 mps 672 mmHg 63%
    21:00 -1°C° 0 mm 2 mps 672 mmHg 63%
    22:00 -1°C° 0 mm 2 mps 672 mmHg 63%
    23:00 -1°C° 0 mm 2 mps 672 mmHg 62%

    Day after tomorrow, 22 January, Monday

    Time Temperature Precipitation Wind Pressure Humidity
    00:00 -1°C° 0 mm 2 mps 672 mmHg 62%
    01:00 -1°C° 0 mm 2 mps 671 mmHg 61%
    02:00 -1°C° 0 mm 2 mps 671 mmHg 61%
    03:00 -1°C° 0 mm 2 mps 671 mmHg 60%
    04:00 -1°C° 0 mm 2 mps 670 mmHg 59%
    05:00 -1°C° 0 mm 2 mps 670 mmHg 59%
    06:00 -1°C° 0 mm 2 mps 669 mmHg 58%
    07:00 +1°C° 0 mm 2 mps 669 mmHg 58%
    08:00 +2°C° 0 mm 2 mps 669 mmHg 58%
    09:00 +2°C° 0 mm 2 mps 669 mmHg 58%
    10:00 +4°C° 0 mm 2 mps 669 mmHg 57%
    11:00 +5°C° 0 mm 2 mps 668 mmHg 56%
    12:00 +6°C° 0 mm 2 mps 668 mmHg 55%
    13:00 +6°C° 0 mm 2 mps 668 mmHg 55%
    14:00 +6°C° 0 mm 2 mps 667 mmHg 55%
    15:00 +6°C° 0 mm 2 mps 666 mmHg 55%
    16:00 +5°C° 0 mm 2 mps 666 mmHg 54%
    17:00 +3°C° 0 mm 2 mps 666 mmHg 52%
    18:00 +2°C° 0 mm 2 mps 666 mmHg 50%
    19:00 +1°C° 0 mm 2 mps 666 mmHg 50%
    20:00 +1°C° 0 mm 2 mps 666 mmHg 50%
    21:00 -1°C° 0 mm 2 mps 666 mmHg 49%
    22:00 -1°C° 0 mm 2 mps 666 mmHg 51%
    23:00 -1°C° 0 mm 2 mps 666 mmHg 52%

    23 January, Tuesday

    Time Temperature Precipitation Wind Pressure Humidity
    00:00 -1°C° 0 mm 2 mps 666 mmHg 54%
    01:00 -2°C° 0 mm 2 mps 666 mmHg 54%
    02:00 -2°C° 0 mm 2 mps 666 mmHg 55%
    03:00 -2°C° 0 mm 2 mps 666 mmHg 56%
    04:00 -2°C° 0 mm 2 mps 666 mmHg 56%
    05:00 -2°C° 0 mm 2 mps 666 mmHg 57%
    06:00 -2°C° 0 mm 2 mps 665 mmHg 57%
    07:00 -2°C° 0 mm 2 mps 666 mmHg 58%
    08:00 -1°C° 0 mm 2 mps 666 mmHg 59%
    09:00 +1°C° 0 mm 2 mps 666 mmHg 59%
    10:00 +2°C° 0 mm 2 mps 666 mmHg 58%
    11:00 +3°C° 0 mm 2 mps 665 mmHg 57%
    12:00 +3°C° 0 mm 3 mps 665 mmHg 56%
    13:00 +5°C° 0 mm 2 mps 664 mmHg 56%
    14:00 +5°C° 0 mm 2 mps 664 mmHg 56%
    15:00 +5°C° 0 mm 2 mps 664 mmHg 57%
    16:00 +4°C° 0 mm 2 mps 664 mmHg 57%
    17:00 +3°C° 0 mm 2 mps 664 mmHg 57%
    18:00 +2°C° 0 mm 2 mps 664 mmHg 57%
    19:00 +2°C° 0.1 mm 2 mps 664 mmHg 59%
    20:00 +2°C° 0.1 mm 2 mps 664 mmHg 61%
    21:00 +3°C° 0.1 mm 1 mps 664 mmHg 64%
    22:00 +3°C° 0.1 mm 1 mps 664 mmHg 65%
    23:00 +3°C° 0.1 mm 1 mps 664 mmHg 66%

    24 January, Wednesday

    Time Temperature Precipitation Wind Pressure Humidity
    00:00 +3°C° 0.1 mm 1 mps 664 mmHg 68%
    01:00 +3°C° 0.2 mm 1 mps 664 mmHg 69%
    02:00 +3°C° 0.2 mm 1 mps 664 mmHg 70%
    03:00 +2°C° 0.2 mm 1 mps 664 mmHg 71%
    04:00 +2°C° 0.3 mm 1 mps 665 mmHg 73%
    05:00 +2°C° 0.3 mm 1 mps 665 mmHg 76%
    06:00 +2°C° 0.3 mm 1 mps 665 mmHg 78%
    07:00 +2°C° 0.2 mm 1 mps 666 mmHg 78%
    08:00 +2°C° 0.2 mm 1 mps 666 mmHg 78%
    09:00 +3°C° 0.2 mm 1 mps 667 mmHg 78%
    10:00 +3°C° 0.1 mm 1 mps 667 mmHg 76%
    11:00 +4°C° 0.1 mm 1 mps 667 mmHg 75%
    12:00 +4°C° 0.1 mm 1 mps 667 mmHg 73%
    13:00 +4°C° 0.2 mm 1 mps 667 mmHg 73%
    14:00 +4°C° 0.2 mm 1 mps 667 mmHg 73%
    15:00 +4°C° 0.2 mm 1 mps 667 mmHg 73%
    16:00 +4°C° 0.1 mm 1 mps 667 mmHg 74%
    17:00 +3°C° 0.1 mm 1 mps 668 mmHg 75%
    18:00 +2°C° 0.1 mm 1 mps 668 mmHg 76%
    19:00 +1°C° 0.1 mm 1 mps 669 mmHg 76%
    20:00 +1°C° 0.1 mm 1 mps 669 mmHg 76%
    21:00 +1°C° 0.1 mm 1 mps 669 mmHg 76%
    22:00 0°C° 0 mm 1 mps 670 mmHg 76%
    23:00 0°C° 0 mm 1 mps 670 mmHg 75%

    25 January, Thursday

    Time Temperature Precipitation Wind Pressure Humidity
    00:00 0°C° 0 mm 1 mps 670 mmHg 75%
    01:00 0°C° 0.1 mm 1 mps 670 mmHg 75%
    02:00 0°C° 0.1 mm 1 mps 670 mmHg 74%
    03:00 0°C° 0.1 mm 1 mps 671 mmHg 74%
    04:00 -1°C° 0.1 mm 1 mps 671 mmHg 75%
    05:00 -1°C° 0.1 mm 1 mps 671 mmHg 75%
    06:00 -1°C° 0.1 mm 1 mps 671 mmHg 75%
    07:00 0°C° 0.1 mm 1 mps 672 mmHg 74%
    08:00 0°C° 0.1 mm 1 mps 672 mmHg 72%
    09:00 +1°C° 0.1 mm 1 mps 673 mmHg 71%
    10:00 +2°C° 0 mm 1 mps 672 mmHg 69%
    11:00 +3°C° 0 mm 1 mps 672 mmHg 67%
    12:00 +4°C° 0 mm 1 mps 672 mmHg 65%
    13:00 +4°C° 0 mm 1 mps 672 mmHg 65%
    14:00 +4°C° 0 mm 1 mps 672 mmHg 65%
    15:00 +4°C° 0 mm 1 mps 672 mmHg 65%
    16:00 +3°C° 0 mm 1 mps 672 mmHg 67%
    17:00 +2°C° 0 mm 1 mps 672 mmHg 69%
    18:00 +1°C° 0 mm 1 mps 672 mmHg 71%
    19:00 +1°C° 0 mm 1 mps 672 mmHg 72%
    20:00 0°C° 0 mm 1 mps 673 mmHg 72%
    21:00 0°C° 0 mm 1 mps 673 mmHg 73%
    22:00 0°C° 0 mm 1 mps 673 mmHg 74%
    23:00 0°C° 0 mm 1 mps 673 mmHg 74%
    Show more